Location: *
(43.0833°N, 13.0500°E)
Time: 16:39:15
(UTC+00:00)

Cosmos 2278 - Pass Details

Date: 15 November 2019
Orbit: 838 x 854 km, 71.1° (Epoch: 10 December)

Event Time Altitude Azimuth Distance (km) Brightness Sun altitude
Rises 17:31:05 0° 197° (SSW) 3,385 7.2 -19.5°
Reaches altitude 10° 17:33:30 10° 196° (SSW) 2,457 6.4 -19.9°
Maximum altitude 17:39:08 75° 112° (ESE) 879 3.6 -20.9°
Enters shadow 17:42:20 27° 31° (NNE) 1,581 4.8 -21.5°
